Location: La Pernelle
(49.6188°N, 1.2999°W)
Time: 14:04:12
(UTC+00:00)

Cosmos 1900 - Pass Details

Date: 12 June 2021
Orbit: 691 x 730 km, 66.1° (Epoch: 04 August)

Event Time Altitude Azimuth Distance (km) Brightness Sun altitude
Rises 22:44:22 0° 322° (NW) 3,097 9.1 -15.0°
Reaches altitude 10° 22:46:43 10° 323° (NW) 2,170 8.0 -15.1°
Maximum altitude 22:51:40 86° 52° (NE) 703 4.3 -15.4°
Enters shadow 22:54:40 24° 141° (SE) 1,430 5.4 -15.5°
